Location: Cincinnati Observatory Center
(39.1389°N, 84.4225°W)
Time: 08:58:59
(UTC-04:00)

Amateur Radio Satellites - All Passes

Search period start: 25 May 2016 08:28
Search period end: 26 May 2016 08:28
Location: Cincinnati Observatory Center, 39.1389°N, 84.4225°W

Satellite Date Start Highest point End Downlink Frequencies (MHz)
Time Altitude Azimuth
CUTE 1.7 + AOD 2 25 May 08:37:05 08:38:51 12° 91° (E) 08:40:35 437.475
GOMX 1 25 May 08:39:55 08:44:41 70° 285° (WNW) 08:49:05 467.674
Cosmos 2499 25 May 08:47:01 08:49:06 11° 59° (ENE) 08:51:12 435.465 / 435.565
GONETS M04 25 May 08:48:19 08:54:32 21° 65° (ENE) 09:00:41
CUTE-I 25 May 08:53:38 08:58:26 35° 292° (WNW) 09:03:14 437.470
STRAND 1 25 May 08:55:56 09:00:22 30° 264° (W) 09:04:49 437.568
CINEMA 3 25 May 08:57:38 09:00:51 21° 94° (E) 09:04:03 145.822/145.860
AIST 1 25 May 09:00:48 09:04:33 27° 76° (ENE) 09:08:15
JUGNU 25 May 09:02:27 09:03:12 10° 174° (S) 09:03:57 437.505
AUBIESAT-1 25 May 09:08:04 09:10:42 22° 101° (ESE) 09:13:19 437.475
COMPASS 1 25 May 09:08:43 09:11:02 14° 92° (E) 09:13:19 437.405
M-CUBED/EXP-1 PRIME 25 May 09:11:58 09:14:56 31° 103° (ESE) 09:17:51 437.505
AAUSAT CUBESAT 2 25 May 09:14:21 09:16:20 13° 91° (E) 09:18:18 437.432
AO-85 25 May 09:16:20 09:20:18 20° 316° (NW) 09:24:13 145.980
NOAA 18 25 May 09:22:44 09:26:19 18° 298° (WNW) 09:29:54 137.9125
BRITE-PL 25 May 09:42:41 09:43:04 10° 302° (WNW) 09:43:26 437.365/2234.400
CANX-2 25 May 09:42:52 09:47:10 84° 102° (ESE) 09:51:28 2200.000
DOVE 4 25 May 09:43:31 09:47:24 30° 290° (WNW) 09:51:08 437.250
Cubesat XI-IV 25 May 09:48:33 09:50:37 12° 301° (WNW) 09:52:41 437.490
SEEDS 25 May 09:51:17 09:55:31 65° 100° (E) 09:59:44 437.485
HO-68 25 May 10:02:51 10:10:05 90° 190° (S) 10:17:16 435.675
PRISM 25 May 10:03:10 10:06:34 24° 264° (W) 10:09:59 437.425
Oscar 11 25 May 10:04:11 10:07:23 20° 94° (E) 10:10:33 145.826/435.025
CUBEBUG 2 25 May 10:05:26 10:09:20 38° 98° (E) 10:13:15 437.445
CUTE 1.7 + AOD 2 25 May 10:10:48 10:14:59 52° 285° (WNW) 10:19:08 437.475
ZACube-1 25 May 10:12:46 10:15:58 21° 95° (E) 10:19:11 437.345
UNISAT 6 25 May 10:13:18 10:16:22 19° 67° (ENE) 10:19:23 437.425
TIGRISAT 25 May 10:21:30 10:24:50 22° 68° (ENE) 10:28:07 435.000
CINEMA 3 25 May 10:34:28 10:38:00 27° 290° (WNW) 10:41:31 145.822/145.860
Cosmos 2499 25 May 10:35:32 10:44:01 61° 79° (E) 10:52:45 435.465 / 435.565
AIST 1 25 May 10:38:36 10:41:59 22° 272° (W) 10:45:19
UWE-3 25 May 10:39:44 10:43:52 68° 101° (E) 10:48:04 435.000/436.395/437.385
SO-50 25 May 10:41:38 10:46:14 52° 54° (NE) 10:50:40 436.795
COMPASS 1 25 May 10:42:46 10:46:47 43° 287° (WNW) 10:50:47 437.405
AUBIESAT-1 25 May 10:42:50 10:45:06 17° 297° (WNW) 10:47:20 437.475
GONETS M04 25 May 10:43:38 10:52:20 79° 266° (W) 11:01:00
HUMSAT D 25 May 10:46:36 10:47:58 11° 91° (E) 10:49:21 437.325/437.525
M-CUBED/EXP-1 PRIME 25 May 10:47:47 10:49:15 12° 299° (WNW) 10:50:41 437.505
AAUSAT CUBESAT 2 25 May 10:48:02 10:52:04 47° 286° (WNW) 10:56:06 437.432
PCSat 25 May 10:49:30 10:54:39 47° 112° (ESE) 10:59:51 145.827
JUGNU 25 May 10:50:03 10:51:16 11° 185° (S) 10:52:29 437.505
FUNcube-1 25 May 10:51:40 10:55:48 57° 101° (E) 10:59:57 145.935
ANTELSAT 25 May 10:53:14 10:57:29 50° 73° (ENE) 11:01:41 437.575/2403.000
O/OREOS (USA 219) 25 May 11:04:50 11:09:25 89° 290° (WNW) 11:14:00 437.305
SEEDS 25 May 11:29:32 11:30:39 11° 296° (WNW) 11:31:46 437.485
DUCHIFAT 1 25 May 11:31:34 11:34:47 22° 68° (ENE) 11:37:59 145.980
CUSAT 1 25 May 11:36:14 11:39:29 15° 77° (ENE) 11:43:04 437.405
Oscar 11 25 May 11:39:40 11:43:34 33° 289° (WNW) 11:47:27 145.826/435.025
DELFI C3 25 May 11:40:32 11:44:32 65° 285° (WNW) 11:48:31 145.870
CUBEBUG 2 25 May 11:43:04 11:45:39 16° 293° (WNW) 11:48:16 437.445
ZACube-1 25 May 11:48:38 11:52:16 29° 289° (WNW) 11:55:54 437.345
UNISAT 6 25 May 11:48:44 11:52:49 37° 262° (W) 11:56:51 437.425
HO-68 25 May 11:52:27 11:56:49 18° 304° (NW) 12:01:12 435.675
TIGRISAT 25 May 11:57:25 12:01:21 31° 263° (W) 12:05:14 435.000
BUGSAT 1 25 May 12:00:58 12:04:12 22° 68° (ENE) 12:07:25 437.445
POPSAT HIP 1 25 May 12:05:27 12:09:37 57° 74° (ENE) 12:13:47 437.405
QB50P1 25 May 12:06:06 12:10:17 59° 74° (ENE) 12:14:27 145.935-145.965
QB50P2 25 May 12:07:24 12:11:37 65° 75° (ENE) 12:15:50 145.880/145.840
POLYITAN 1 25 May 12:09:51 12:14:03 67° 76° (ENE) 12:18:16 437.675
HUMSAT D 25 May 12:19:51 12:23:53 53° 286° (WNW) 12:27:58 437.325/437.525
SO-50 25 May 12:23:23 12:26:14 16° 251° (WSW) 12:29:02 436.795
NANOSAT C BR1 25 May 12:26:02 12:30:16 84° 257° (WSW) 12:34:31 145.865
AISAT 25 May 12:26:46 12:30:03 20° 94° (E) 12:33:20 437.250
Cosmos 2499 25 May 12:29:36 12:36:33 29° 276° (W) 12:43:43 435.465 / 435.565
FUNcube-1 25 May 12:30:01 12:31:34 12° 296° (WNW) 12:33:07 145.935
ANTELSAT 25 May 12:32:23 12:34:28 13° 268° (W) 12:36:31 437.575/2403.000
PCSat 25 May 12:33:48 12:38:16 25° 310° (NW) 12:42:44 145.827
BEESAT 3 25 May 12:33:57 12:37:31 34° 115° (ESE) 12:41:07 437.485
SRMSAT 25 May 12:38:08 12:39:34 11° 182° (S) 12:40:59 437.500
JAS-2 25 May 12:41:32 12:47:52 34° 64° (ENE) 12:54:38 435.910
GONETS M04 25 May 12:43:53 12:47:37 13° 285° (WNW) 12:51:21
DANDE 25 May 12:46:27 12:50:31 24° 82° (E) 12:55:30 436.750
UKube-1 25 May 12:49:07 12:52:33 23° 95° (E) 12:55:57 .
ESTCUBE 1 25 May 12:53:12 12:57:43 59° 101° (E) 13:02:11 437.505/2401.250
50 SAT 25 May 12:59:07 13:02:46 52° 100° (E) 13:06:24 437.505
DUCHIFAT 1 25 May 13:06:34 13:10:18 30° 263° (W) 13:14:01 145.980
CUSAT 1 25 May 13:14:16 13:20:10 86° 279° (W) 13:27:40 437.405
Oscar 19 25 May 13:23:09 13:27:30 28° 67° (ENE) 13:31:53 437.125/150
VELOX 1 25 May 13:26:28 13:30:56 89° 281° (W) 13:35:20 145.980
CUBEBUG 1 25 May 13:26:33 13:30:57 85° 283° (WNW) 13:35:18 437.445
Gurwin Techsat 1B 25 May 13:27:20 13:29:41 13° 60° (ENE) 13:32:02 435.225
DX 1 25 May 13:30:11 13:34:34 85° 102° (ESE) 13:38:54 434.975-435.025
BEESAT 2 25 May 13:31:09 13:35:06 89° 123° (ESE) 13:39:06 435.950
BUGSAT 1 25 May 13:35:42 13:39:24 29° 263° (W) 13:43:06 437.445
POPSAT HIP 1 25 May 13:44:31 13:45:44 11° 269° (W) 13:46:56 437.405
QB50P1 25 May 13:45:29 13:46:24 11° 269° (W) 13:47:20 145.935-145.965
AISAT 25 May 14:02:37 14:06:36 33° 290° (WNW) 14:10:32 437.250
ITAMSAT 1 25 May 14:03:05 14:03:52 10° 58° (ENE) 14:04:39 435.822/435.867
SPROUT 25 May 14:05:29 14:09:45 80° 284° (WNW) 14:13:59 437.525
BEESAT 3 25 May 14:12:18 14:15:18 21° 312° (NW) 14:18:20 437.485
UKube-1 25 May 14:24:50 14:28:34 29° 291° (WNW) 14:32:18 .
JAS-2 25 May 14:25:36 14:32:29 51° 262° (W) 14:40:01 435.910
DANDE 25 May 14:27:52 14:32:45 44° 288° (WNW) 14:39:11 436.750
ESTCUBE 1 25 May 14:31:46 14:34:00 14° 296° (WNW) 14:36:13 437.505/2401.250
50 SAT 25 May 14:35:38 14:36:01 10° 295° (WNW) 14:36:24 437.505
TISAT 1 25 May 14:39:13 14:43:22 64° 101° (E) 14:47:29 437.305
BEESAT 25 May 14:39:51 14:41:13 11° 90° (E) 14:42:35 436.000
AO-7 25 May 14:52:01 14:58:18 25° 55° (NE) 15:04:34 29.400- 29.500
CUSAT 1 25 May 15:00:00 15:03:43 15° 302° (WNW) 15:07:47 437.405
Oscar 19 25 May 15:01:58 15:06:40 34° 263° (W) 15:11:24 437.125/150
Gurwin Techsat 1B 25 May 15:03:35 15:08:54 81° 257° (WSW) 15:14:14 435.225
BEESAT 2 25 May 15:12:37 15:13:32 11° 319° (NW) 15:14:28 435.950
AIST 2 25 May 15:19:26 15:23:33 79° 120° (ESE) 15:27:42 435.215
ITAMSAT 1 25 May 15:37:18 15:42:28 84° 77° (ENE) 15:47:41 435.822/435.867
SWISSCUBE 25 May 15:44:38 15:49:25 63° 102° (ESE) 15:54:10 437.505
ITUPSAT 1 25 May 15:49:24 15:54:11 62° 102° (ESE) 15:58:56 437.325
Cosmos 2491 25 May 15:57:31 16:05:57 49° 76° (ENE) 16:14:16 435.465 / 435.565
YUBILEINY 25 May 16:00:00 16:05:53 21° 79° (E) 16:11:45 435.215
AO-85 25 May 16:07:41 16:12:08 41° 52° (NE) 16:16:12 145.980
BEESAT 25 May 16:14:41 16:19:28 71° 286° (WNW) 16:24:13 436.000
KKS-1 25 May 16:15:11 16:17:16 13° 92° (E) 16:19:21 437.445
TISAT 1 25 May 16:17:30 16:18:28 11° 297° (WNW) 16:19:25 437.305
HORYU 2 25 May 16:38:07 16:41:21 20° 66° (ENE) 16:44:36 437.375
AO-7 25 May 16:41:57 16:50:14 76° 254° (WSW) 16:58:35 29.400- 29.500
RS-15 25 May 16:46:25 16:53:22 19° 97° (E) 17:00:28 29.354- 29.394
STARS 25 May 16:56:44 16:59:52 19° 94° (E) 17:02:58 437.465
AIST 2 25 May 17:00:47 17:02:34 12° 318° (NW) 17:04:21 435.215
ITAMSAT 1 25 May 17:21:56 17:22:33 10° 271° (W) 17:23:10 435.822/435.867
SWISSCUBE 25 May 17:24:10 17:26:39 14° 297° (WNW) 17:29:08 437.505
NOAA 18 25 May 17:28:51 17:31:34 14° 59° (ENE) 17:34:18 137.9125
ITUPSAT 1 25 May 17:28:56 17:31:29 14° 297° (WNW) 17:34:01 437.325
BRITE-PL 25 May 17:33:43 17:36:25 14° 60° (ENE) 17:39:08 437.365/2234.400
MOZHAYETS 4 25 May 17:47:24 17:52:03 77° 283° (WNW) 17:56:40
AO-85 25 May 17:49:04 17:52:11 19° 252° (WSW) 17:55:08 145.980
Cubesat XI-IV 25 May 17:49:31 17:52:44 16° 62° (ENE) 17:55:57 437.490
KKS-1 25 May 17:49:49 17:54:09 53° 287° (WNW) 17:58:26 437.445
NOAA 15 25 May 17:52:09 17:56:27 26° 66° (ENE) 18:00:45 137.62
YUBILEINY 25 May 17:52:56 18:01:37 77° 278° (W) 18:10:22 435.215
Cosmos 2491 25 May 17:54:51 18:02:27 35° 275° (W) 18:10:01 435.465 / 435.565
GOMX 1 25 May 18:10:37 18:13:25 14° 62° (ENE) 18:16:12 467.674
HORYU 2 25 May 18:13:37 18:17:40 35° 262° (W) 18:21:44 437.375
Cosmos 2504 25 May 18:30:23 18:37:16 52° 90° (E) 18:44:28 435.465 / 435.565
STARS 25 May 18:32:20 18:36:18 35° 290° (WNW) 18:40:16 437.465
CUTE-I 25 May 18:34:27 18:39:24 42° 70° (ENE) 18:44:23 437.470
AO-7 25 May 18:40:51 18:44:13 13° 271° (W) 18:47:36 29.400- 29.500
HO-68 25 May 18:48:49 18:50:30 11° 50° (NE) 18:52:10 435.675
RS-15 25 May 18:52:30 19:03:46 84° 118° (ESE) 19:15:45 29.354- 29.394
LilacSat-2 25 May 18:59:56 19:03:42 63° 76° (ENE) 19:07:28 437.200
NOAA 18 25 May 19:06:03 19:11:31 79° 256° (WSW) 19:17:00 137.9125
CUBESAT XI-V 25 May 19:06:11 19:10:56 81° 102° (ESE) 19:15:38 437.345
BRITE-PL 25 May 19:08:26 19:14:02 88° 257° (WSW) 19:19:47 437.365/2234.400
DOVE 4 25 May 19:09:48 19:13:57 24° 68° (ENE) 19:18:01 437.250
Cubesat XI-IV 25 May 19:26:59 19:32:14 64° 258° (WSW) 19:37:32 437.490
NOAA 15 25 May 19:31:03 19:35:59 39° 262° (W) 19:40:58 137.62
STRAND 1 25 May 19:31:03 19:32:02 10° 89° (E) 19:33:02 437.568
O/OREOS (USA 219) 25 May 19:38:12 19:40:45 15° 55° (NE) 19:43:17 437.305
PCSat 25 May 19:38:31 19:43:20 31° 52° (NE) 19:48:07 145.827
GOMX 1 25 May 19:45:18 19:50:48 79° 258° (WSW) 19:56:16 467.674
AUBIESAT-1 25 May 19:52:34 19:56:14 30° 67° (ENE) 19:59:41 437.475
YUBILEINY 25 May 19:55:41 20:00:00 14° 300° (WNW) 20:04:21 435.215
M-CUBED/EXP-1 PRIME 25 May 19:56:47 20:00:50 42° 68° (ENE) 20:04:36 437.505
CINEMA 3 25 May 19:58:03 20:01:36 21° 68° (ENE) 20:05:03 145.822/145.860
CUTE-I 25 May 20:15:27 20:19:36 23° 266° (W) 20:23:45 437.470
Cosmos 2504 25 May 20:25:08 20:31:01 26° 290° (WNW) 20:37:09 435.465 / 435.565
HO-68 25 May 20:29:47 20:36:46 61° 69° (ENE) 20:43:47 435.675
CANX-2 25 May 20:34:22 20:38:24 49° 74° (ENE) 20:42:29 2200.000
SEEDS 25 May 20:41:54 20:45:44 37° 72° (ENE) 20:49:36 437.485
DOVE 4 25 May 20:46:26 20:51:23 40° 262° (W) 20:56:14 437.250
CUBESAT XI-V 25 May 20:46:33 20:47:36 11° 299° (WNW) 20:48:40 437.345
BRITE-PL 25 May 20:51:51 20:53:12 11° 273° (W) 20:54:35 437.365/2234.400
BEESAT 3 25 May 20:52:44 20:55:22 17° 46° (NE) 20:57:58 437.485
Oscar 11 25 May 20:58:57 21:01:12 14° 65° (ENE) 21:03:27 145.826/435.025
CUTE 1.7 + AOD 2 25 May 21:01:53 21:06:05 89° 250° (WSW) 21:10:20 437.475
CUBEBUG 2 25 May 21:02:30 21:06:20 29° 71° (ENE) 21:10:05 437.445
STRAND 1 25 May 21:06:37 21:11:47 82° 285° (WNW) 21:16:56 437.568
RS-15 25 May 21:07:36 21:17:44 34° 324° (NW) 21:28:22 29.354- 29.394
ZACube-1 25 May 21:08:26 21:10:56 15° 66° (ENE) 21:13:25 437.345
O/OREOS (USA 219) 25 May 21:16:08 21:20:31 55° 252° (WSW) 21:24:52 437.305
PCSat 25 May 21:21:48 21:26:45 36° 250° (WSW) 21:31:39 145.827
AUBIESAT-1 25 May 21:27:28 21:30:41 21° 259° (W) 21:33:46 437.475
AIST 1 25 May 21:29:42 21:32:37 18° 87° (E) 21:35:33
COMPASS 1 25 May 21:31:52 21:36:00 78° 258° (WSW) 21:40:10 437.405
M-CUBED/EXP-1 PRIME 25 May 21:32:49 21:35:27 16° 260° (W) 21:37:58 437.505
CINEMA 3 25 May 21:34:00 21:38:30 38° 262° (W) 21:42:50 145.822/145.860
UWE-3 25 May 21:35:27 21:39:37 47° 74° (ENE) 21:43:42 435.000/436.395/437.385
AAUSAT CUBESAT 2 25 May 21:36:38 21:40:45 87° 262° (W) 21:44:55 437.432
PRISM 25 May 21:44:59 21:49:01 46° 100° (E) 21:53:01 437.425
FUNcube-1 25 May 21:46:08 21:50:03 37° 72° (ENE) 21:53:55 145.935
GONETS M04 25 May 21:48:47 21:55:26 25° 81° (E) 22:02:03
BEESAT 2 25 May 21:50:24 21:54:06 35° 53° (NE) 21:57:46 435.950
CUSAT 1 25 May 22:11:12 22:14:47 14° 57° (ENE) 22:18:11 437.405
CANX-2 25 May 22:12:44 22:14:32 12° 269° (W) 22:16:21 2200.000
SEEDS 25 May 22:18:56 22:21:35 16° 268° (W) 22:24:13 437.485
HO-68 25 May 22:19:20 22:24:52 24° 266° (W) 22:30:27 435.675
ISS 25 May 22:21:28 22:24:16 26° 133° (SE) 22:27:04 145.825
DELFI C3 25 May 22:25:04 22:28:56 59° 76° (ENE) 22:32:52 145.870
BEESAT 3 25 May 22:29:30 22:33:17 45° 244° (WSW) 22:37:02 437.485
Oscar 11 25 May 22:32:43 22:36:53 50° 261° (W) 22:41:05 145.826/435.025
CUBEBUG 2 25 May 22:39:27 22:42:56 23° 265° (W) 22:46:22 437.445
ZACube-1 25 May 22:42:49 22:46:53 43° 261° (W) 22:50:54 437.345
ANTELSAT 25 May 22:48:23 22:49:26 11° 91° (E) 22:50:30 437.575/2403.000
AIST 1 25 May 23:05:52 23:09:53 35° 282° (WNW) 23:13:59
HUMSAT D 25 May 23:09:38 23:13:43 88° 77° (ENE) 23:17:49 437.325/437.525
Cosmos 2499 25 May 23:11:27 23:18:12 47° 89° (E) 23:25:24 435.465 / 435.565
UWE-3 25 May 23:14:04 23:16:18 14° 268° (W) 23:18:30 435.000/436.395/437.385
PRISM 25 May 23:21:38 23:23:55 14° 295° (WNW) 23:26:11 437.425
AISAT 25 May 23:23:35 23:26:29 17° 65° (ENE) 23:29:24 437.250
FUNcube-1 25 May 23:23:42 23:26:25 16° 267° (W) 23:29:07 145.935
DANDE 25 May 23:24:46 23:31:47 28° 67° (ENE) 23:38:23 436.750
RS-15 25 May 23:27:41 23:35:38 19° 359° (N) 23:43:45 29.354- 29.394
BEESAT 2 25 May 23:28:54 23:31:40 18° 249° (WSW) 23:34:27 435.950
50 SAT 25 May 23:37:01 23:39:42 20° 69° (ENE) 23:42:26 437.505
UNISAT 6 25 May 23:41:01 23:45:08 45° 99° (E) 23:49:19 437.425
AIST 2 25 May 23:41:58 23:45:48 35° 53° (NE) 23:49:37 435.215
GONETS M04 25 May 23:42:42 23:51:27 67° 280° (W) 00:00:12
UKube-1 25 May 23:43:08 23:46:03 18° 66° (ENE) 23:48:58 .
TIGRISAT 25 May 23:49:16 23:53:27 53° 100° (E) 23:57:42 435.000
CUSAT 1 25 May 23:50:41 23:58:35 71° 78° (ENE) 00:05:09 437.405
ESTCUBE 1 25 May 23:51:27 23:55:46 46° 72° (ENE) 00:00:06 437.505/2401.250
QB50P2 25 May 23:55:50 23:57:07 11° 91° (E) 23:58:23 145.880/145.840
ISS 25 May 23:57:39 00:00:38 32° 330° (NNW) 00:03:37 145.825
POLYITAN 1 25 May 23:58:10 23:59:33 11° 91° (E) 00:00:57 437.675
PHONESAT 2.4 26 May 00:00:25 00:03:23 41° 157° (SSE) 00:06:22 2401.200-2431.200
NANOSAT C BR1 26 May 00:12:44 00:15:24 16° 93° (E) 00:18:03 145.865
CUBEBUG 1 26 May 00:20:55 00:25:19 68° 76° (ENE) 00:29:45 437.445
ANTELSAT 26 May 00:22:16 00:26:30 60° 285° (WNW) 00:30:46 437.575/2403.000
VELOX 1 26 May 00:22:17 00:26:43 70° 75° (ENE) 00:31:10 145.980
DX 1 26 May 00:24:15 00:28:34 62° 74° (ENE) 00:32:55 434.975-435.025
DUCHIFAT 1 26 May 00:51:16 00:55:16 43° 99° (E) 00:59:14 145.980
SO-50 26 May 00:55:15 00:59:03 23° 111° (ESE) 01:02:52 436.795
SPROUT 26 May 00:57:33 01:01:48 65° 76° (ENE) 01:06:05 437.525
AISAT 26 May 00:58:21 01:02:36 43° 261° (W) 01:06:54 437.250
Cosmos 2499 26 May 01:05:21 01:11:33 30° 289° (WNW) 01:18:07 435.465 / 435.565
DANDE 26 May 01:06:53 01:15:15 67° 266° (W) 01:22:52 436.750
50 SAT 26 May 01:10:25 01:13:19 23° 264° (W) 01:16:15 437.505
UKube-1 26 May 01:17:43 01:21:47 39° 261° (W) 01:25:53 .
BUGSAT 1 26 May 01:18:14 01:22:02 39° 99° (E) 01:25:48 437.445
UNISAT 6 26 May 01:19:00 01:21:30 15° 294° (WNW) 01:24:01 437.425
AIST 2 26 May 01:20:59 01:24:03 20° 249° (WSW) 01:27:05 435.215
POPSAT HIP 1 26 May 01:26:55 01:31:04 63° 285° (WNW) 01:35:12 437.405
QB50P1 26 May 01:27:32 01:31:41 61° 285° (WNW) 01:35:49 145.935-145.965
TIGRISAT 26 May 01:27:40 01:29:42 13° 295° (WNW) 01:31:45 435.000
QB50P2 26 May 01:29:08 01:33:15 55° 286° (WNW) 01:37:21 145.880/145.840
TISAT 1 26 May 01:29:37 01:33:35 40° 72° (ENE) 01:37:33 437.305
ESTCUBE 1 26 May 01:30:08 01:32:48 15° 268° (W) 01:35:29 437.505/2401.250
POLYITAN 1 26 May 01:31:35 01:35:41 54° 286° (WNW) 01:39:46 437.675
CUSAT 1 26 May 01:34:16 01:39:41 21° 279° (W) 01:44:33 437.405
ISS 26 May 01:36:54 01:37:52 11° 349° (N) 01:38:51 145.825
PHONESAT 2.4 26 May 01:36:57 01:40:05 72° 353° (N) 01:43:12 2401.200-2431.200
JAS-2 26 May 01:37:32 01:43:58 31° 92° (E) 01:49:48 435.910
RS-15 26 May 01:43:10 01:53:46 32° 34° (NE) 02:04:23 29.354- 29.394
BEESAT 26 May 01:45:18 01:47:19 13° 62° (ENE) 01:49:21 436.000
GONETS M04 26 May 01:47:01 01:50:07 12° 302° (WNW) 01:53:14
NANOSAT C BR1 26 May 01:47:23 01:51:16 37° 288° (WNW) 01:55:07 145.865
DX 1 26 May 02:04:01 02:05:08 11° 269° (W) 02:06:15 434.975-435.025
DUCHIFAT 1 26 May 02:28:11 02:30:36 15° 294° (WNW) 02:32:59 145.980
SO-50 26 May 02:34:36 02:39:16 43° 307° (NW) 02:43:58 436.795
SWISSCUBE 26 May 02:49:50 02:54:31 63° 74° (ENE) 02:59:14 437.505
DANDE 26 May 02:53:35 02:56:27 12° 284° (WNW) 02:59:15 436.750
BUGSAT 1 26 May 02:54:42 02:57:04 15° 294° (WNW) 02:59:26 437.445
ITUPSAT 1 26 May 02:54:54 02:59:35 63° 74° (ENE) 03:04:19 437.325
TISAT 1 26 May 03:06:49 03:09:24 16° 267° (W) 03:11:59 437.305
KKS-1 26 May 03:13:10 03:14:45 12° 62° (ENE) 03:16:22 437.445
PHONESAT 2.4 26 May 03:13:48 03:16:56 80° 7° (N) 03:20:04 2401.200-2431.200
Oscar 19 26 May 03:14:01 03:19:13 89° 278° (W) 03:24:21 437.125/150
ISS 26 May 03:14:46 03:15:31 11° 10° (N) 03:16:17 145.825
BEESAT 26 May 03:19:46 03:24:30 70° 258° (WSW) 03:29:16 436.000
Gurwin Techsat 1B 26 May 03:21:03 03:26:07 44° 98° (E) 03:31:10 435.225
JAS-2 26 May 03:22:00 03:29:12 49° 292° (WNW) 03:35:41 435.910
ITAMSAT 1 26 May 03:51:35 03:56:15 32° 97° (E) 04:00:53 435.822/435.867
STARS 26 May 03:52:56 03:55:38 16° 65° (ENE) 03:58:19 437.465
RS-15 26 May 03:55:44 04:08:08 89° 61° (ENE) 04:20:26 29.354- 29.394
YUBILEINY 26 May 04:04:31 04:13:00 51° 77° (ENE) 04:21:28 435.215
Cosmos 2504 26 May 04:23:53 04:29:39 20° 66° (ENE) 04:35:33 435.465 / 435.565
SWISSCUBE 26 May 04:30:47 04:32:43 12° 269° (W) 04:34:40 437.505
ITUPSAT 1 26 May 04:35:51 04:37:50 12° 269° (W) 04:39:49 437.325
AO-7 26 May 04:45:02 04:52:47 40° 99° (E) 05:00:28 29.400- 29.500
KKS-1 26 May 04:46:17 04:50:45 68° 258° (WSW) 04:55:13 437.445
MOZHAYETS 4 26 May 04:47:52 04:52:25 87° 72° (ENE) 04:57:00
ISS 26 May 04:49:55 04:52:49 28° 29° (NNE) 04:55:43 145.825
PHONESAT 2.4 26 May 04:50:44 04:53:33 31° 206° (SSW) 04:56:20 2401.200-2431.200
Oscar 19 26 May 04:56:22 04:57:43 11° 301° (WNW) 04:59:03 437.125/150
Cosmos 2491 26 May 04:56:45 05:05:21 59° 91° (E) 05:13:55 435.465 / 435.565
Gurwin Techsat 1B 26 May 05:01:41 05:05:47 23° 295° (WNW) 05:09:52 435.225
STARS 26 May 05:27:21 05:31:36 46° 260° (W) 05:35:51 437.465
ITAMSAT 1 26 May 05:31:08 05:35:36 30° 293° (WNW) 05:40:05 435.822/435.867
YUBILEINY 26 May 06:01:55 06:09:23 33° 275° (W) 06:16:54 435.215
HORYU 2 26 May 06:05:10 06:09:25 44° 99° (E) 06:13:39 437.375
CUBESAT XI-V 26 May 06:08:02 06:12:39 68° 75° (ENE) 06:17:19 437.345
RS-15 26 May 06:10:12 06:19:01 24° 260° (W) 06:27:49 29.354- 29.394
Cosmos 2504 26 May 06:15:31 06:23:58 86° 265° (W) 06:32:49 435.465 / 435.565
AO-85 26 May 06:20:44 06:24:50 22° 110° (ESE) 06:28:57 145.980
ISS 26 May 06:26:19 06:29:15 31° 226° (SW) 06:32:10 145.825
AO-7 26 May 06:37:44 06:45:33 46° 297° (WNW) 06:53:22 29.400- 29.500
STRAND 1 26 May 06:44:56 06:47:50 15° 62° (ENE) 06:50:44 437.568
CUTE-I 26 May 06:53:27 06:57:03 18° 92° (E) 07:00:40 437.470
Cosmos 2491 26 May 06:55:10 07:02:37 30° 290° (WNW) 07:10:07 435.465 / 435.565
BRITE-PL 26 May 07:15:39 07:20:18 34° 95° (E) 07:24:36 437.365/2234.400
NOAA 18 26 May 07:29:16 07:34:33 48° 100° (E) 07:39:50 137.9125
HORYU 2 26 May 07:42:48 07:45:37 17° 295° (WNW) 07:48:24 437.375
Cubesat XI-IV 26 May 07:45:15 07:50:31 56° 101° (E) 07:55:47 437.490
NOAA 15 26 May 07:46:50 07:52:11 85° 104° (ESE) 07:57:28 137.62
CUBESAT XI-V 26 May 07:49:11 07:50:29 11° 271° (W) 07:51:47 437.345
GOMX 1 26 May 07:49:30 07:53:44 32° 95° (E) 07:57:41 467.674
AO-85 26 May 07:59:42 08:05:01 53° 305° (NW) 08:10:16 145.980
LilacSat-2 26 May 08:08:31 08:12:16 70° 284° (WNW) 08:16:02 437.200
Cosmos 2504 26 May 08:11:33 08:16:09 16° 282° (WNW) 08:20:53 435.465 / 435.565
